Change the Weather History Date:

Monday, June 10, 2013

  Actual Average Record
Temperature  
Mean Temperature 78 °F -  
Max Temperature 84 °F 82 °F 93 °F (2008)
Min Temperature 73 °F 64 °F 55 °F (1997)
Cooling Degree Days 12    
Growing Degree Days 28 (Base 50)    
Moisture  
Dew Point 71 °F    
Average Humidity 80    
Maximum Humidity 94    
Minimum Humidity 69    
Precipitation  
Precipitation 0.00 in - - ()
Sea Level Pressure  
Sea Level Pressure 30.07 in    
Wind  
Wind Speed 9 mph ()    
Max Wind Speed 18 mph    
Max Gust Speed 29 mph    
Visibility 9.6 miles    
Events Rain    
Averages and records for this station are not official NWS values.
T = Trace of Precipitation, MM = Missing Value Source: Averaged Metar Reports

Daily Weather History Graph

Daily Weather History Graph

Search for Another Location

Airport or City:

Trip Planner

Search our weather history database for the weather conditions in past years. The results will help you decide how hot, cold, wet, or windy it might be!

Date:

Astronomy

Jun. 10, 2013 Rise Set
Actual Time 5:53 AM EDT 8:20 PM EDT
Civil Twilight 5:23 AM EDT 8:50 PM EDT
Nautical Twilight 4:47 AM EDT 9:26 PM EDT
Astronomical Twilight 4:07 AM EDT 10:07 PM EDT
Moon 7:36 AM EDT (6/10) 9:50 PM EDT (6/10)
Length of Visible Light 15h 26m
Length of Day
14h 27m
Waxing Crescent, 4% of the Moon is Illuminated
Jun 10
Waxing Crescent
Jun 16
First Quarter
Jun 23
Full
Jun 30
Last Quarter
Jul 8
New

Hourly Weather History & Observations

Time (EDT) Temp. Heat Index Dew Point Humidity Pressure Visibility Wind Dir Wind Speed Gust Speed Precip Events Conditions
12:54 AM 73.9 °F - 69.1 °F 85% 30.15 in 10.0 mi South 6.9 mph - N/A   Mostly Cloudy
1:26 AM 73.9 °F - 70.0 °F 87% 30.15 in 10.0 mi South 8.1 mph - N/A   Overcast
1:51 AM 74.5 °F - 70.2 °F 86% 30.15 in 10.0 mi SSW 9.2 mph - N/A   Mostly Cloudy
1:54 AM 75.0 °F - 70.0 °F 84% 30.13 in 10.0 mi SSW 8.1 mph - N/A   Overcast
2:05 AM 75.0 °F - 71.1 °F 87% 30.14 in 10.0 mi SSW 6.9 mph - N/A   Mostly Cloudy
2:54 AM 75.0 °F - 71.1 °F 87% 30.12 in 10.0 mi SSW 8.1 mph - N/A   Overcast
3:54 AM 73.9 °F - 71.1 °F 91% 30.11 in 10.0 mi SSW 5.8 mph - N/A   Mostly Cloudy
4:01 AM 73.9 °F - 71.1 °F 91% 30.12 in 10.0 mi SSW 5.8 mph - N/A   Scattered Clouds
4:54 AM 73.9 °F - 71.1 °F 91% 30.11 in 10.0 mi South 4.6 mph - N/A   Clear
5:51 AM 73.4 °F - 71.6 °F 94% 30.12 in 10.0 mi South 5.8 mph - N/A   Mostly Cloudy
5:54 AM 73.9 °F - 71.1 °F 91% 30.11 in 10.0 mi SSW 4.6 mph - N/A   Scattered Clouds
6:09 AM 73.9 °F - 72.0 °F 93% 30.12 in 10.0 mi SSW 6.9 mph - N/A   Mostly Cloudy
6:16 AM 75.0 °F - 72.0 °F 90% 30.12 in 10.0 mi SSW 5.8 mph - N/A   Mostly Cloudy
6:54 AM 75.9 °F - 72.0 °F 87% 30.12 in 10.0 mi South 8.1 mph - N/A   Overcast
7:54 AM 77.0 °F - 72.0 °F 84% 30.12 in 10.0 mi SSW 9.2 mph - N/A   Mostly Cloudy
8:54 AM 79.0 °F - 71.1 °F 77% 30.12 in 10.0 mi SW 10.4 mph - N/A   Mostly Cloudy
9:54 AM 80.1 °F 83.8 °F 72.0 °F 76% 30.12 in 10.0 mi SSW 12.7 mph 23.0 mph N/A   Mostly Cloudy
10:42 AM 80.1 °F 83.8 °F 72.0 °F 76% 30.11 in 10.0 mi SSW 11.5 mph - N/A   Mostly Cloudy
10:54 AM 81.0 °F 85.2 °F 72.0 °F 74% 30.11 in 10.0 mi South 11.5 mph 23.0 mph N/A   Mostly Cloudy
11:54 AM 81.0 °F 85.2 °F 72.0 °F 74% 30.09 in 10.0 mi SW 15.0 mph 25.3 mph N/A   Overcast
12:54 PM 82.9 °F 88.8 °F 73.0 °F 72% 30.09 in 10.0 mi SSW 12.7 mph 25.3 mph N/A   Mostly Cloudy
1:54 PM 81.0 °F 84.9 °F 71.1 °F 72% 30.05 in 10.0 mi SSW 17.3 mph 27.6 mph N/A   Mostly Cloudy
2:09 PM 82.9 °F 88.0 °F 72.0 °F 69% 30.06 in 10.0 mi South 13.8 mph 26.5 mph N/A   Mostly Cloudy
2:54 PM 82.0 °F 86.7 °F 72.0 °F 71% 30.04 in 10.0 mi South 17.3 mph 28.8 mph N/A   Mostly Cloudy
3:28 PM 82.0 °F 86.3 °F 71.1 °F 69% 30.04 in 10.0 mi SW 16.1 mph 28.8 mph N/A   Scattered Clouds
3:54 PM 82.0 °F 86.7 °F 72.0 °F 71% 30.01 in 10.0 mi South 15.0 mph 25.3 mph N/A   Scattered Clouds
4:29 PM 81.0 °F 84.9 °F 71.1 °F 72% 30.01 in 10.0 mi SSW 16.1 mph 27.6 mph N/A   Mostly Cloudy
4:33 PM 82.0 °F 86.7 °F 72.0 °F 71% 30.01 in 1.8 mi SSW 13.8 mph 27.6 mph N/A   Haze
4:40 PM 82.0 °F 86.7 °F 72.0 °F 71% 30.00 in 7.0 mi South 13.8 mph 25.3 mph N/A   Mostly Cloudy
4:54 PM 81.0 °F 85.2 °F 72.0 °F 74% 29.99 in 7.0 mi SSW 18.4 mph 26.5 mph N/A   Mostly Cloudy
5:38 PM 80.1 °F 83.6 °F 71.1 °F 74% 30.01 in 10.0 mi SSW 16.1 mph 26.5 mph N/A   Mostly Cloudy
5:54 PM 80.1 °F 83.6 °F 71.1 °F 74% 30.00 in 10.0 mi SSW 16.1 mph 26.5 mph N/A   Mostly Cloudy
6:11 PM 79.0 °F - 71.1 °F 77% 30.01 in 10.0 mi SSW 13.8 mph 26.5 mph N/A   Mostly Cloudy
6:54 PM 78.1 °F - 72.0 °F 81% 30.02 in 10.0 mi SSW 12.7 mph 20.7 mph 0.00 in Rain Light Rain
7:54 PM 77.0 °F - 72.0 °F 84% 30.02 in 10.0 mi SSW 12.7 mph 20.7 mph 0.00 in   Mostly Cloudy
8:54 PM 77.0 °F - 72.0 °F 84% 30.00 in 10.0 mi SW 13.8 mph 18.4 mph N/A   Mostly Cloudy
9:54 PM 73.9 °F - 69.1 °F 85% 30.01 in 10.0 mi SW 6.9 mph - 0.00 in   Mostly Cloudy
10:54 PM 73.9 °F - 66.9 °F 79% 30.03 in 10.0 mi SSW 5.8 mph - N/A   Mostly Cloudy
11:54 PM 73.0 °F - 68.0 °F 84% 30.02 in 10.0 mi SSW 8.1 mph - N/A   Scattered Clouds